Regional Weather Roundup
Issued by NWS

Home | Current Version | Previous Version | Graphics & Text | Print | Product List | Glossary On
Versions: 1 2 3 4 5 6 7 8 9 10 11 12 13 14 15 16 17 18 19 20 21 22 23 24 25 26 27 28 29 30 31 32 33 34 35 36 37 38 39 40 41 42 43 44 45 46 47 48 49 50
000
ASUS43 KFSD 250302
RWRSD

WEATHER ROUNDUP FOR SOUTH DAKOTA
NATIONAL WEATHER SERVICE SIOUX FALLS SD
1000 PM CDT FRI OCT 24 2014

NOTE: "FAIR" INDICATES FEW OR NO CLOUDS BELOW 12,000 FEET WITH NO
SIGNIFICANT WEATHER AND/OR OBSTRUCTIONS TO VISIBILITY.


SDZ001>005-009-010-012>017-250400-
NORTHWEST AND NORTH CENTRAL SOUTH DAKOTA

CITY           SKY/WX    TMP DP  RH WIND       PRES   REMARKS
BUFFALO          N/A     53  30  41 W7        30.03S
FAITH            N/A     54  34  46 NW10      30.07S
MOBRIDGE       CLOUDY    56  37  49 N8        30.01S
$$

SDZ012>016-024>037-041>051-057-063-072>074-250400-
SOUTHWEST AND SOUTH CENTRAL SOUTH DAKOTA

CITY           SKY/WX    TMP DP  RH WIND       PRES   REMARKS
RAPID CTY ARPT CLEAR     46  35  65 NW10      30.11R
PIERRE         PTCLDY    56  39  53 N9        30.02R
CUSTER         CLEAR     46  35  65 N5        30.17R
ELLSWORTH AFB  PTCLDY    49  35  58 NW10      30.11R
PHILIP         CLEAR     49  36  61 W5        30.06R
PINE RIDGE     CLEAR     45  37  73 E7        30.08R
SPEARFISH      CLOUDY    48  36  61 CALM      30.14S
WINNER         FAIR      58  31  35 MISG      30.03R
$$

SDZ004>011-016>023-039-040-250400-
NORTHEAST SOUTH DAKOTA

CITY           SKY/WX    TMP DP  RH WIND       PRES   REMARKS
ABERDEEN       MOCLDY    62  37  39 NW13      29.99R
WATERTOWN      CLEAR     56  41  57 W7        29.96R
SISSETON         N/A     58  37  45 N9        29.94R
$$

SDZ017-020-022-023-036>040-048>070-250400-
SOUTHEAST SOUTH DAKOTA

CITY           SKY/WX    TMP DP  RH WIND       PRES   REMARKS
SIOUX FALLS    CLEAR     54  43  66 S3        29.96S
HURON          PTCLDY    50  37  61 NW6       29.98R
CHAMBERLAIN    CLEAR     51  36  55 CALM      30.00F
MITCHELL       CLEAR     57  39  51 W7        30.00R
YANKTON        CLEAR     61  43  51 SW8       29.99R
$$

ABBREVIATIONS USED IN REMARKS
   TC - TEMPERATURE IN CELSIUS
  WCI - WIND CHILL INDEX
   HX - HEAT INDEX
  VSB - VISIBILITY




USA.gov is the U.S. government's official web portal to all federal, state and local government web resources and services.